| time (UTC) | temp C | wind direction | speed KPH | gust KPH | rain 1hr cm | rain 24hr cm | rain mn cm | humidity % | barometer mb |
| 20260503022137 | 5 | 83 | 0.0 | 0.0 | 0.00 | 0.03 | 0.03 | 66 | 1016.9 |
| 20260503021634 | 5 | 79 | 0.0 | 0.0 | 0.00 | 0.03 | 0.03 | 65 | 1016.8 |
| 20260503021131 | 5 | 83 | 0.0 | 0.0 | 0.00 | 0.03 | 0.03 | 63 | 1016.6 |
| 20260503020628 | 5 | 82 | 0.0 | 0.0 | 0.00 | 0.03 | 0.03 | 63 | 1016.7 |
| 20260503020126 | 5 | 84 | 0.0 | 0.0 | 0.00 | 0.03 | 0.03 | 61 | 1016.8 |
| 20260503015622 | 6 | 81 | 0.0 | 0.0 | 0.00 | 0.03 | 0.03 | 60 | 1016.6 |
| 20260503015119 | 6 | 79 | 0.0 | 0.0 | 0.00 | 0.03 | 0.03 | 60 | 1016.5 |
| 20260503014615 | 6 | 68 | 0.0 | 0.0 | 0.00 | 0.03 | 0.03 | 58 | 1016.7 |
| 20260503014113 | 6 | 66 | 0.0 | 0.0 | 0.00 | 0.03 | 0.03 | 57 | 1016.7 |
| 20260503013610 | 6 | 55 | 0.0 | 0.0 | 0.00 | 0.03 | 0.03 | 57 | 1016.6 |
| 20260503013108 | 7 | 36 | 0.0 | 1.6 | 0.00 | 0.03 | 0.03 | 56 | 1016.5 |
| 20260503012605 | 7 | 57 | 0.0 | 1.6 | 0.00 | 0.03 | 0.03 | 56 | 1016.5 |
| 20260503012102 | 7 | 64 | 0.0 | 0.0 | 0.00 | 0.03 | 0.03 | 56 | 1016.5 |
| 20260503011558 | 7 | 66 | 0.0 | 1.6 | 0.00 | 0.03 | 0.03 | 56 | 1016.6 |
| 20260503011055 | 7 | 53 | 0.0 | 1.6 | 0.00 | 0.03 | 0.03 | 56 | 1016.5 |
| 20260503010551 | 7 | 346 | 0.0 | 1.6 | 0.00 | 0.03 | 0.03 | 55 | 1016.1 |
| 20260503010049 | 7 | 61 | 0.0 | 4.8 | 0.00 | 0.03 | 0.03 | 54 | 1016.2 |
| 20260503005546 | 7 | 68 | 0.0 | 3.2 | 0.00 | 0.03 | 0.03 | 55 | 1016.3 |
| 20260503005043 | 7 | 66 | 0.0 | 1.6 | 0.00 | 0.03 | 0.03 | 54 | 1016.2 |
| 20260503004539 | 7 | 64 | 0.0 | 1.6 | 0.00 | 0.03 | 0.03 | 55 | 1016.2 |
| 20260503004038 | 7 | 49 | 1.6 | 3.2 | 0.00 | 0.03 | 0.03 | 54 | 1016.2 |
| 20260503003534 | 7 | 36 | 3.2 | 3.2 | 0.00 | 0.03 | 0.03 | 54 | 1016.2 |
| 20260503003031 | 7 | 51 | 0.0 | 3.2 | 0.00 | 0.03 | 0.03 | 54 | 1016.1 |
| 20260503002528 | 7 | 35 | 0.0 | 1.6 | 0.00 | 0.03 | 0.03 | 54 | 1016.2 |
| 20260503002025 | 7 | 26 | 1.6 | 3.2 | 0.00 | 0.03 | 0.03 | 54 | 1016.7 |
| 20260503001521 | 7 | 5 | 1.6 | 4.8 | 0.00 | 0.03 | 0.03 | 53 | 1016.0 |
| 20260503001019 | 7 | 38 | 1.6 | 3.2 | 0.00 | 0.03 | 0.03 | 53 | 1016.3 |
| 20260503000516 | 7 | 56 | 1.6 | 3.2 | 0.00 | 0.03 | 0.03 | 54 | 1016.0 |
| 20260503000013 | 7 | 38 | 0.0 | 6.4 | 0.00 | 0.03 | 0.03 | 53 | 1016.0 |
| 20260502235509 | 7 | 0 | 1.6 | 4.8 | 0.00 | 0.03 | 0.03 | 52 | 1016.0 |
| 20260502235008 | 7 | 49 | 0.0 | 4.8 | 0.00 | 0.03 | 0.03 | 53 | 1015.9 |
| 20260502234503 | 7 | 25 | 0.0 | 3.2 | 0.00 | 0.03 | 0.03 | 51 | 1015.9 |
| 20260502234001 | 7 | 356 | 3.2 | 6.4 | 0.00 | 0.03 | 0.03 | 50 | 1016.0 |
| 20260502233456 | 7 | 333 | 1.6 | 3.2 | 0.00 | 0.03 | 0.03 | 49 | 1016.0 |
| 20260502232953 | 7 | 15 | 1.6 | 4.8 | 0.00 | 0.03 | 0.03 | 48 | 1016.0 |
| 20260502232450 | 7 | 4 | 4.8 | 6.4 | 0.00 | 0.03 | 0.03 | 48 | 1015.9 |
| 20260502231946 | 7 | 21 | 3.2 | 9.7 | 0.00 | 0.03 | 0.03 | 47 | 1016.0 |
| 20260502231444 | 8 | 18 | 3.2 | 4.8 | 0.00 | 0.03 | 0.03 | 46 | 1015.8 |
| 20260502230942 | 7 | 79 | 0.0 | 6.4 | 0.00 | 0.03 | 0.03 | 47 | 1015.9 |
| 20260502230440 | 8 | 334 | 3.2 | 6.4 | 0.00 | 0.03 | 0.03 | 47 | 1015.8 |
| 20260502225937 | 8 | 346 | 1.6 | 3.2 | 0.00 | 0.03 | 0.03 | 46 | 1015.8 |
| 20260502225433 | 8 | 30 | 3.2 | 6.4 | 0.00 | 0.03 | 0.03 | 46 | 1015.9 |
| 20260502224930 | 8 | 3 | 3.2 | 11.3 | 0.00 | 0.03 | 0.03 | 46 | 1015.8 |
| 20260502224426 | 8 | 277 | 3.2 | 3.2 | 0.00 | 0.03 | 0.03 | 48 | 1016.0 |
| 20260502223923 | 8 | 288 | 1.6 | 3.2 | 0.00 | 0.03 | 0.03 | 47 | 1015.9 |
| 20260502223421 | 8 | 328 | 3.2 | 4.8 | 0.00 | 0.03 | 0.03 | 48 | 1015.7 |
| 20260502222919 | 8 | 43 | 6.4 | 9.7 | 0.00 | 0.03 | 0.03 | 50 | 1015.9 |
| 20260502222416 | 8 | 9 | 0.0 | 4.8 | 0.00 | 0.03 | 0.03 | 49 | 1015.7 |
| 20260502221911 | 8 | 49 | 1.6 | 9.7 | 0.00 | 0.03 | 0.03 | 47 | 1015.6 |
| 20260502221408 | 8 | 43 | 1.6 | 4.8 | 0.00 | 0.03 | 0.03 | 48 | 1015.7 |
| 20260502220905 | 8 | 60 | 1.6 | 4.8 | 0.00 | 0.03 | 0.03 | 48 | 1015.9 |
| 20260502220401 | 8 | 63 | 3.2 | 9.7 | 0.00 | 0.03 | 0.03 | 48 | 1015.5 |
| 20260502215857 | 8 | 19 | 1.6 | 9.7 | 0.00 | 0.03 | 0.03 | 47 | 1015.8 |
| 20260502215355 | 8 | 62 | 3.2 | 9.7 | 0.00 | 0.03 | 0.03 | 50 | 1015.8 |
| 20260502214852 | 8 | 70 | 0.0 | 3.2 | 0.00 | 0.03 | 0.03 | 53 | 1015.8 |
| 20260502214348 | 7 | 26 | 1.6 | 6.4 | 0.00 | 0.03 | 0.03 | 52 | 1015.7 |
| 20260502213846 | 8 | 26 | 6.4 | 11.3 | 0.00 | 0.03 | 0.03 | 51 | 1015.8 |
| 20260502213343 | 8 | 50 | 4.8 | 9.7 | 0.00 | 0.03 | 0.03 | 52 | 1015.8 |
| 20260502212842 | 8 | 1 | 1.6 | 9.7 | 0.00 | 0.03 | 0.03 | 52 | 1015.8 |
| 20260502212340 | 8 | 32 | 6.4 | 9.7 | 0.00 | 0.03 | 0.03 | 51 | 1015.6 |
| 20260502211837 | 8 | 61 | 6.4 | 9.7 | 0.00 | 0.03 | 0.03 | 50 | 1015.6 |
| 20260502211332 | 8 | 48 | 6.4 | 11.3 | 0.00 | 0.03 | 0.03 | 48 | 1015.4 |
| 20260502210830 | 9 | 38 | 6.4 | 9.7 | 0.00 | 0.03 | 0.03 | 44 | 1015.6 |
| 20260502210327 | 8 | 256 | 3.2 | 4.8 | 0.00 | 0.03 | 0.03 | 43 | 1015.3 |
| 20260502205824 | 8 | 268 | 3.2 | 14.5 | 0.00 | 0.03 | 0.03 | 44 | 1015.5 |
| 20260502205320 | 8 | 103 | 0.0 | 9.7 | 0.00 | 0.03 | 0.03 | 46 | 1015.5 |
| 20260502204817 | 8 | 2 | 3.2 | 11.3 | 0.00 | 0.03 | 0.03 | 47 | 1015.3 |
| 20260502204314 | 9 | 330 | 3.2 | 14.5 | 0.00 | 0.03 | 0.03 | 45 | 1015.4 |
| 20260502203812 | 8 | 24 | 3.2 | 9.7 | 0.00 | 0.03 | 0.03 | 46 | 1015.5 |
| 20260502203309 | 10 | 50 | 3.2 | 6.4 | 0.00 | 0.03 | 0.03 | 44 | 1015.6 |
| 20260502202809 | 9 | 352 | 6.4 | 6.4 | 0.00 | 0.03 | 0.03 | 46 | 1015.5 |
| 20260502202307 | 9 | 17 | 4.8 | 9.7 | 0.00 | 0.03 | 0.03 | 45 | 1015.5 |
| 20260502201805 | 8 | 70 | 0.0 | 4.8 | 0.00 | 0.03 | 0.03 | 43 | 1015.4 |
| 20260502201301 | 9 | 4 | 6.4 | 11.3 | 0.00 | 0.03 | 0.03 | 44 | 1015.5 |
| 20260502200757 | 9 | 86 | 0.0 | 3.2 | 0.00 | 0.03 | 0.03 | 45 | 1015.7 |
| 20260502200253 | 8 | 13 | 0.0 | 3.2 | 0.00 | 0.03 | 0.03 | 45 | 1015.6 |
| 20260502195752 | 8 | 75 | 1.6 | 12.9 | 0.00 | 0.03 | 0.03 | 45 | 1015.7 |
| 20260502195248 | 9 | 299 | 4.8 | 6.4 | 0.00 | 0.03 | 0.03 | 46 | 1015.7 |
| 20260502194744 | 9 | 346 | 4.8 | 9.7 | 0.00 | 0.03 | 0.03 | 48 | 1015.7 |
| 20260502194242 | 10 | 336 | 1.6 | 4.8 | 0.00 | 0.03 | 0.03 | 45 | 1015.7 |
| 20260502193737 | 9 | 312 | 6.4 | 11.3 | 0.00 | 0.03 | 0.03 | 43 | 1015.8 |
| 20260502193235 | 10 | 307 | 6.4 | 9.7 | 0.00 | 0.03 | 0.03 | 43 | 1015.7 |
| 20260502192734 | 9 | 15 | 8.0 | 12.9 | 0.00 | 0.03 | 0.03 | 45 | 1015.6 |
| 20260502192232 | 10 | 349 | 6.4 | 11.3 | 0.00 | 0.03 | 0.03 | 43 | 1015.8 |
| 20260502191728 | 10 | 249 | 4.8 | 12.9 | 0.00 | 0.03 | 0.03 | 42 | 1015.9 |
| 20260502191227 | 10 | 273 | 6.4 | 11.3 | 0.00 | 0.03 | 0.03 | 43 | 1015.8 |
| 20260502190724 | 9 | 341 | 1.6 | 9.7 | 0.00 | 0.03 | 0.03 | 44 | 1016.0 |
| 20260502190221 | 9 | 10 | 4.8 | 9.7 | 0.00 | 0.03 | 0.03 | 47 | 1016.0 |
| 20260502185721 | 10 | 231 | 4.8 | 9.7 | 0.00 | 0.03 | 0.03 | 44 | 1015.9 |
| 20260502185218 | 9 | 313 | 4.8 | 12.9 | 0.00 | 0.03 | 0.03 | 47 | 1015.9 |
| 20260502184714 | 9 | 340 | 1.6 | 4.8 | 0.00 | 0.03 | 0.03 | 48 | 1015.9 |
| 20260502184209 | 8 | 235 | 8.0 | 12.9 | 0.00 | 0.03 | 0.03 | 46 | 1016.0 |
| 20260502183707 | 8 | 206 | 6.4 | 11.3 | 0.00 | 0.03 | 0.03 | 46 | 1016.1 |
| 20260502183202 | 9 | 37 | 8.0 | 11.3 | 0.00 | 0.03 | 0.03 | 46 | 1015.9 |
| 20260502182658 | 10 | 21 | 6.4 | 12.9 | 0.00 | 0.03 | 0.03 | 47 | 1016.1 |
| 20260502182153 | 10 | 24 | 6.4 | 16.1 | 0.00 | 0.03 | 0.03 | 46 | 1015.9 |
| 20260502181651 | 10 | 283 | 4.8 | 6.4 | 0.00 | 0.03 | 0.03 | 43 | 1015.9 |
| 20260502181150 | 10 | 289 | 9.7 | 12.9 | 0.00 | 0.03 | 0.03 | 43 | 1016.0 |
| 20260502180647 | 9 | 55 | 1.6 | 9.7 | 0.00 | 0.03 | 0.03 | 46 | 1016.0 |
| 20260502180144 | 10 | 336 | 4.8 | 11.3 | 0.00 | 0.03 | 0.03 | 43 | 1016.0 |
| 20260502170109 | 10 | 301 | 8.0 | 14.5 | 0.00 | 0.03 | 0.03 | 44 | 1016.2 |
| 20260502164054 | 10 | 10 | 4.8 | 14.5 | 0.00 | 0.03 | 0.03 | 43 | 1016.3 |
| 20260502163550 | 8 | 287 | 6.4 | 11.3 | 0.00 | 0.03 | 0.03 | 46 | 1016.5 |
| 20260502163047 | 7 | 324 | 6.4 | 11.3 | 0.00 | 0.03 | 0.03 | 49 | 1016.5 |
| 20260502162544 | 7 | 283 | 8.0 | 11.3 | 0.00 | 0.03 | 0.03 | 49 | 1016.3 |
| 20260502162041 | 7 | 26 | 6.4 | 12.9 | 0.00 | 0.03 | 0.03 | 49 | 1016.5 |
| 20260502161539 | 8 | 353 | 3.2 | 6.4 | 0.00 | 0.03 | 0.03 | 49 | 1016.6 |
| 20260502161036 | 8 | 12 | 6.4 | 12.9 | 0.00 | 0.03 | 0.03 | 49 | 1016.6 |
| 20260502160534 | 7 | 267 | 6.4 | 9.7 | 0.00 | 0.03 | 0.03 | 47 | 1016.7 |
| 20260502151941 | 7 | 12 | 3.2 | 6.4 | 0.00 | 0.03 | 0.03 | 52 | 1016.5 |
| 20260502151437 | 7 | 204 | 3.2 | 9.7 | 0.00 | 0.03 | 0.03 | 52 | 1016.6 |
| 20260502150935 | 7 | 57 | 1.6 | 9.7 | 0.00 | 0.03 | 0.03 | 51 | 1016.5 |
| 20260502150432 | 7 | 270 | 1.6 | 3.2 | 0.00 | 0.03 | 0.03 | 53 | 1016.3 |
| 20260502130317 | 4 | 29 | 6.4 | 6.4 | 0.00 | 0.03 | 0.03 | 71 | 1016.2 |
| 20260502123803 | 3 | 30 | 1.6 | 6.4 | 0.00 | 0.03 | 0.03 | 72 | 1016.1 |
| 20260502123300 | 3 | 321 | 1.6 | 3.2 | 0.00 | 0.03 | 0.03 | 73 | 1016.0 |
| 20260502122756 | 2 | 325 | 4.8 | 4.8 | 0.00 | 0.03 | 0.03 | 74 | 1016.1 |
| 20260502122253 | 2 | 13 | 6.4 | 6.4 | 0.00 | 0.03 | 0.03 | 74 | 1016.0 |
| 20260502121751 | 2 | 25 | 1.6 | 3.2 | 0.00 | 0.03 | 0.03 | 75 | 1016.0 |
| 20260502121249 | 2 | 47 | 4.8 | 6.4 | 0.00 | 0.03 | 0.03 | 75 | 1016.0 |
| 20260502120745 | 2 | 2 | 3.2 | 4.8 | 0.00 | 0.03 | 0.03 | 76 | 1015.8 |
| 20260502120242 | 2 | 351 | 3.2 | 4.8 | 0.00 | 0.03 | 0.03 | 76 | 1015.8 |
| 20260502115740 | 2 | 330 | 3.2 | 4.8 | 0.00 | 0.03 | 0.03 | 76 | 1015.7 |
| 20260502115236 | 2 | 30 | 3.2 | 6.4 | 0.00 | 0.03 | 0.03 | 78 | 1015.7 |
| 20260502114732 | 1 | 6 | 1.6 | 4.8 | 0.00 | 0.03 | 0.03 | 79 | 1015.8 |
| 20260502114229 | 1 | 353 | 0.0 | 3.2 | 0.00 | 0.03 | 0.03 | 79 | 1015.8 |
| 20260502113727 | 1 | 27 | 1.6 | 1.6 | 0.00 | 0.03 | 0.03 | 80 | 1015.7 |
| 20260502113224 | 1 | 355 | 1.6 | 1.6 | 0.00 | 0.03 | 0.03 | 81 | 1015.8 |
| 20260502112722 | 1 | 36 | 0.0 | 1.6 | 0.00 | 0.03 | 0.03 | 81 | 1015.7 |
| 20260502112220 | 1 | 5 | 0.0 | 1.6 | 0.00 | 0.03 | 0.03 | 82 | 1015.7 |
| 20260502111717 | 1 | 37 | 0.0 | 1.6 | 0.00 | 0.03 | 0.03 | 82 | 1015.7 |
| 20260502111214 | 1 | 51 | 0.0 | 1.6 | 0.00 | 0.03 | 0.03 | 83 | 1015.7 |
| 20260502110712 | 1 | 34 | 1.6 | 1.6 | 0.00 | 0.03 | 0.03 | 83 | 1015.7 |
| 20260502110209 | 1 | 334 | 1.6 | 1.6 | 0.00 | 0.03 | 0.03 | 84 | 1015.6 |
| 20260502105707 | 1 | 27 | 1.6 | 1.6 | 0.00 | 0.03 | 0.03 | 84 | 1015.5 |
| 20260502105203 | 0 | 63 | 0.0 | 0.0 | 0.00 | 0.03 | 0.03 | 85 | 1015.6 |
| 20260502104700 | 0 | 53 | 0.0 | 1.6 | 0.00 | 0.03 | 0.03 | 85 | 1015.5 |
| 20260502104158 | 0 | 60 | 0.0 | 0.0 | 0.00 | 0.03 | 0.03 | 85 | 1015.6 |
| 20260502103656 | 0 | 57 | 0.0 | 0.0 | 0.00 | 0.03 | 0.03 | 85 | 1015.5 |
| 20260502103153 | 1 | 57 | 0.0 | 0.0 | 0.00 | 0.03 | 0.03 | 85 | 1015.5 |
| 20260502102650 | 1 | 54 | 0.0 | 1.6 | 0.00 | 0.03 | 0.03 | 85 | 1015.6 |
| 20260502102146 | 1 | 41 | 0.0 | 1.6 | 0.00 | 0.03 | 0.03 | 86 | 1015.6 |
| 20260502101644 | 1 | 37 | 0.0 | 0.0 | 0.00 | 0.03 | 0.03 | 86 | 1015.6 |
| 20260502101142 | 1 | 62 | 0.0 | 1.6 | 0.00 | 0.03 | 0.03 | 86 | 1015.7 |
| 20260502100641 | 1 | 66 | 0.0 | 1.6 | 0.00 | 0.03 | 0.03 | 86 | 1015.5 |
| 20260502100138 | 1 | 54 | 0.0 | 1.6 | 0.00 | 0.03 | 0.03 | 86 | 1015.6 |
| 20260502091112 | 1 | 26 | 0.0 | 0.0 | 0.00 | 0.03 | 0.03 | 84 | 1015.5 |
| 20260502090610 | 1 | 25 | 1.6 | 1.6 | 0.00 | 0.03 | 0.03 | 83 | 1015.6 |
| 20260502090107 | 1 | 41 | 0.0 | 1.6 | 0.00 | 0.03 | 0.03 | 84 | 1015.3 |
| 20260502071504 | 2 | 58 | 0.0 | 0.0 | 0.00 | 0.03 | 0.03 | 91 | 1015.3 |
| 20260502071002 | 2 | 55 | 0.0 | 1.6 | 0.00 | 0.03 | 0.03 | 91 | 1015.1 |
| 20260502070500 | 2 | 61 | 0.0 | 0.0 | 0.00 | 0.03 | 0.03 | 91 | 1015.2 |
| 20260502065958 | 2 | 54 | 0.0 | 1.6 | 0.00 | 0.03 | 0.03 | 91 | 1015.5 |
| 20260502065456 | 2 | 71 | 0.0 | 0.0 | 0.00 | 0.03 | 0.03 | 91 | 1015.5 |
| 20260502064954 | 2 | 10 | 0.0 | 0.0 | 0.00 | 0.03 | 0.03 | 92 | 1015.6 |
| 20260502064451 | 2 | 74 | 0.0 | 0.0 | 0.00 | 0.03 | 0.03 | 92 | 1015.6 |
| 20260502063948 | 3 | 19 | 0.0 | 0.0 | 0.00 | 0.03 | 0.03 | 92 | 1015.8 |
| 20260502063446 | 3 | 46 | 0.0 | 1.6 | 0.00 | 0.03 | 0.03 | 92 | 1015.5 |
| 20260502062944 | 3 | 51 | 0.0 | 0.0 | 0.00 | 0.03 | 0.03 | 92 | 1015.7 |
| 20260502062440 | 3 | 43 | 0.0 | 0.0 | 0.00 | 0.03 | 0.03 | 92 | 1015.9 |
| 20260502061939 | 3 | 35 | 0.0 | 0.0 | 0.00 | 0.03 | 0.03 | 92 | 1015.5 |
| 20260502061437 | 3 | 66 | 0.0 | 0.0 | 0.00 | 0.03 | 0.03 | 92 | 1015.8 |
| 20260502060932 | 3 | 91 | 0.0 | 0.0 | 0.00 | 0.03 | 0.03 | 92 | 1015.5 |
| 20260502060428 | 3 | 84 | 0.0 | 0.0 | 0.00 | 0.03 | 0.03 | 92 | 1015.6 |
| 20260502055925 | 3 | 79 | 0.0 | 0.0 | 0.00 | 0.03 | 0.03 | 92 | 1015.6 |
| 20260502055423 | 3 | 74 | 0.0 | 0.0 | 0.00 | 0.03 | 0.03 | 92 | 1015.7 |
| 20260502054923 | 3 | 69 | 0.0 | 0.0 | 0.00 | 0.03 | 0.03 | 92 | 1015.7 |
| 20260502054420 | 3 | 90 | 0.0 | 0.0 | 0.00 | 0.03 | 0.03 | 92 | 1015.8 |
| 20260502053917 | 3 | 59 | 0.0 | 1.6 | 0.18 | 0.03 | 0.03 | 92 | 1016.0 |
| 20260502053414 | 3 | 88 | 0.0 | 0.0 | 0.18 | 0.03 | 0.03 | 92 | 1015.9 |
| 20260502052912 | 3 | 86 | 0.0 | 0.0 | 0.00 | 0.00 | 0.00 | 92 | 1016.0 |
| 20260502052410 | 3 | 35 | 0.0 | 0.0 | 0.00 | 0.00 | 0.00 | 92 | 1015.8 |
| 20260502051907 | 3 | 20 | 0.0 | 0.0 | 0.00 | 0.00 | 0.00 | 92 | 1015.9 |
| 20260502051406 | 3 | 67 | 0.0 | 0.0 | 0.00 | 0.00 | 0.00 | 92 | 1015.8 |
| 20260502050902 | 3 | 62 | 0.0 | 0.0 | 0.00 | 0.00 | 0.00 | 92 | 1015.7 |
| 20260502050359 | 3 | 84 | 0.0 | 0.0 | 0.00 | 0.00 | 0.00 | 92 | 1015.7 |
| 20260502045856 | 3 | 86 | 0.0 | 0.0 | 0.00 | 0.00 | 0.00 | 92 | 1015.8 |
| 20260502045352 | 3 | 86 | 0.0 | 0.0 | 0.00 | 0.00 | 0.00 | 92 | 1015.7 |
| 20260502044849 | 3 | 81 | 0.0 | 0.0 | 0.00 | 0.00 | 0.00 | 92 | 1015.7 |
| 20260502044345 | 3 | 82 | 0.0 | 0.0 | 0.00 | 0.00 | 0.00 | 92 | 1015.9 |
| 20260502043837 | 3 | 84 | 0.0 | 0.0 | 0.00 | 0.00 | 0.00 | 91 | 1015.7 |
| 20260502043334 | 3 | 85 | 0.0 | 0.0 | 0.00 | 0.00 | 0.00 | 91 | 1015.7 |
| 20260502042829 | 3 | 88 | 0.0 | 0.0 | 0.00 | 0.00 | 0.00 | 91 | 1015.7 |
| 20260502042326 | 3 | 90 | 0.0 | 0.0 | 0.00 | 0.00 | 0.00 | 91 | 1015.7 |
| 20260502041823 | 3 | 87 | 0.0 | 0.0 | 0.00 | 0.00 | 0.00 | 91 | 1015.9 |
| 20260502041315 | 3 | 83 | 0.0 | 0.0 | 0.00 | 0.00 | 0.00 | 91 | 1015.8 |
| 20260502040812 | 3 | 84 | 0.0 | 0.0 | 0.00 | 0.00 | 0.00 | 91 | 1015.7 |
| 20260502040309 | 3 | 93 | 0.0 | 0.0 | 0.00 | 0.00 | 0.00 | 91 | 1015.7 |
| 20260502035805 | 3 | 87 | 0.0 | 0.0 | 0.00 | 0.23 | 0.23 | 91 | 1015.8 |
| 20260502035302 | 3 | 90 | 0.0 | 0.0 | 0.00 | 0.23 | 0.23 | 91 | 1015.5 |
| 20260502034759 | 3 | 83 | 0.0 | 0.0 | 0.00 | 0.23 | 0.23 | 90 | 1015.7 |
| 20260502034257 | 3 | 84 | 0.0 | 0.0 | 0.00 | 0.23 | 0.23 | 90 | 1015.6 |
| 20260502033755 | 3 | 85 | 0.0 | 0.0 | 0.00 | 0.23 | 0.23 | 90 | 1015.7 |
| 20260502033252 | 3 | 87 | 0.0 | 0.0 | 0.00 | 0.23 | 0.23 | 90 | 1015.7 |
| 20260502032748 | 3 | 77 | 0.0 | 0.0 | 0.00 | 0.23 | 0.23 | 90 | 1015.5 |
| 20260502032244 | 3 | 67 | 0.0 | 0.0 | 0.00 | 0.23 | 0.23 | 90 | 1015.7 |
| 20260502031743 | 3 | 88 | 0.0 | 0.0 | 0.00 | 0.23 | 0.23 | 90 | 1015.7 |
| 20260502031241 | 3 | 90 | 0.0 | 0.0 | 0.00 | 0.23 | 0.23 | 90 | 1015.8 |
| 20260502030739 | 3 | 92 | 0.0 | 0.0 | 0.00 | 0.23 | 0.23 | 89 | 1016.1 |
| 20260502030236 | 4 | 101 | 0.0 | 1.6 | 0.00 | 0.23 | 0.23 | 89 | 1015.9 |
| 20260502025734 | 4 | 105 | 0.0 | 0.0 | 0.00 | 0.23 | 0.23 | 89 | 1015.8 |
| 20260502025231 | 4 | 86 | 0.0 | 0.0 | 0.00 | 0.23 | 0.23 | 89 | 1015.7 |
| 20260502024729 | 4 | 83 | 0.0 | 0.0 | 0.00 | 0.23 | 0.23 | 89 | 1015.8 |
| 20260502024227 | 4 | 68 | 0.0 | 0.0 | 0.00 | 0.23 | 0.23 | 88 | 1015.9 |
| 20260502023725 | 4 | 68 | 0.0 | 0.0 | 0.00 | 0.23 | 0.23 | 88 | 1015.9 |
| 20260502023222 | 4 | 81 | 0.0 | 0.0 | 0.00 | 0.23 | 0.23 | 88 | 1015.9 |
| 20260502022720 | 4 | 66 | 0.0 | 0.0 | 0.00 | 0.23 | 0.23 | 87 | 1015.8 |